Location: Glenview
(38.8999°N, 122.7592°W)
Time: 08:00:50
(UTC+00:00)

Daily predictions for brighter satellites

Satellite Brightness Start Highest point End
(mag) Time Altitude Azimuth Time Altitude Azimuth Time Altitude Azimuth
NOSS 2-1 (D) 4.0 12:00:28 10° S 12:03:46 40° ESE 12:07:00 10° NE
STARLINK-1245 3.8 12:01:57 10° WNW 12:05:58 49° SW 12:09:56 10° SSE
STARLINK-1266 4.4 12:04:51 10° SSW 12:07:46 31° SE 12:10:41 10° ENE
STARLINK-1258 4.3 12:06:16 10° SSW 12:09:08 31° SE 12:12:00 10° ENE
STARLINK-1284 4.3 12:06:20 10° SSW 12:09:17 32° SE 12:12:15 10° ENE
STARLINK-1233 3.9 12:06:57 10° WNW 12:10:54 44° SW 12:14:51 10° SSE
STARLINK-1292 4.2 12:09:17 10° SSW 12:12:17 34° SE 12:15:18 10° ENE
STARLINK-1274 4.2 12:09:28 10° SSW 12:12:21 34° SE 12:15:16 10° ENE
Cosmos 2154 Rocket 4.5 12:06:55 10° SSW 12:12:51 43° WNW 12:18:47 10° N
STARLINK-41 3.4 12:09:57 10° SSW 12:13:01 52° SE 12:16:04 10° ENE
STARLINK-1289 4.1 12:12:25 10° SSW 12:15:27 37° SE 12:18:30 10° ENE
STARLINK-1204 4.0 12:11:59 10° WNW 12:15:52 40° SW 12:19:45 10° SSE
Cosmos 1076 Rocket 3.7 12:12:09 10° SSW 12:16:24 54° W 12:20:41 10° N
SL-8 Rocket 4.2 12:10:07 10° S 12:16:26 82° E 12:22:45 10° N
ADEOS 4.0 12:11:40 10° NNE 12:16:52 66° ESE 12:22:02 10° S
STARLINK-1303 4.0 12:13:53 10° SSW 12:16:58 39° SE 12:20:05 10° ENE
Landsat 5 4.3 12:13:59 10° SSW 12:18:04 35° W 12:22:13 10° NNW
STARLINK-1312 4.0 12:15:27 10° SSW 12:18:32 41° SE 12:21:38 10° ENE
CZ-2C R/B 2.8 12:13:35 10° NNE 12:18:44 76° ESE 12:23:55 10° S
STARLINK-33 3.0 12:16:24 10° SW 12:19:35 78° SE 12:22:47 10° NE
CZ-4C R/B 4.3 12:17:03 10° SSW 12:19:54 22° W 12:22:48 10° NW
STARLINK-1238 4.2 12:17:01 10° WNW 12:20:48 36° SW 12:24:36 10° SSE
Cosmos 2360 Rocket 3.8 12:17:26 10° SSE 12:22:24 34° ESE 12:27:24 10° NE
